[[{"header":{"parameterUnit":"m.s-1","parameterCategory":1,"la1":30.2991,"la2":30.254,"lo1":-89.0895,"lo2":-89.0444,"dy":0.0017,"dx":0.0017,"nx":28,"ny":28,"refTime":"2024-08-27T21:00:00:Z","depth":0,"parameterNumber":2,"parameterNumberName":"U-component_of_WINDS"},"data":[0,0,0,0,0,0,0,0,0,0,0,0,0,0,0,0,0,0,0,0,0,0,0,0,0,0,0,0,0,0,0,0,0,0,0,0,0,0,0,0,0,0,0,0,0,0,0,0,0,0,0,0,0,0,0,0,0,0,-2.2983,-2.2983,0,-2.2992,-2.2992,-2.2992,-2.2931,-2.2929,-2.2928,-2.2926,-2.2934,-2.2936,-2.2938,0,0,0,0,0,0,0,0,0,0,0,0,0,-2.2912,-2.2913,-2.2983,-2.2983,-2.2983,-2.2992,-2.2992,-2.2992,-2.2931,-2.2929,-2.2927,-2.2925,-2.2934,-2.2936,-2.2938,0,0,0,0,0,0,0,0,0,0,0,0,0,-2.2934,-2.2914,-2.2983,-2.2954,-2.2951,-2.2992,-2.2992,-2.2992,-2.2932,-2.2929,-2.2927,-2.2924,-2.2933,-2.2936,-2.2938,-2.3007,0,0,-2.2947,-2.2948,0,0,0,0,0,0,0,0,-2.2933,-2.2937,-2.2958,-2.2956,-2.2953,-2.2958,-2.297,-2.2997,-2.2932,-2.2939,-2.2926,-2.2923,-2.2944,-2.2946,-2.2953,-2.3007,-2.3007,-2.2947,-2.2949,-2.295,-2.2951,0,0,0,0,0,0,0,-2.2931,-2.2936,-2.2986,-2.2958,-2.2955,-2.294,-2.294,-2.2975,-2.2956,-2.2938,-2.2934,-2.2936,-2.2942,-2.2951,-2.2953,-2.3008,-2.2947,-2.2949,-2.2951,-2.2952,-2.3117,-2.3119,0,0,0,0,0,0,-2.2934,-2.2935,-2.2986,-2.2986,-2.2936,-2.2943,-2.2944,-2.2959,-2.2955,-2.2952,-2.2938,-2.2933,-2.2947,-2.295,-2.2953,-2.3031,-2.295,-2.2952,-2.2954,-2.3114,-2.3117,-2.312,0,0,0,0,0,0,-2.2932,-2.2939,-2.2986,-2.296,-2.2964,-2.2947,-2.2965,-2.296,-2.2968,-2.2955,-2.2951,-2.295,-2.2945,-2.2949,-2.2994,-2.3031,-2.2954,-2.2956,-2.3111,-2.3115,-2.3119,-2.319,0,0,0,0,0,0,-2.2931,-2.2939,-2.2965,-2.2961,-2.2966,-2.3027,-2.2967,-2.2962,-2.2973,-2.2967,-2.2965,-2.2963,-2.2944,-2.299,-2.2996,-2.3033,-2.2958,-2.3107,-2.3113,-2.3118,-2.3184,-2.3196,-2.3206,0,0,0,0,0,-2.2928,-2.2985,-2.2967,-2.2973,-2.2998,-2.3029,-2.3032,-2.3009,-2.2977,-2.3002,-2.2994,-2.2963,-2.3026,-2.2995,-2.3002,-2.304,-2.3105,-2.3111,-2.3117,-2.3179,-2.3194,-2.3206,0,0,0,0,0,0,-2.2994,-2.2984,-2.2963,-2.302,-2.3026,-2.3019,-2.305,-2.3025,-2.304,-2.3033,-2.3004,-2.3004,-2.3053,-2.3051,-2.3017,-2.3105,-2.306,-2.3068,-2.3105,-2.3118,-2.3129,-2.3128,-2.2961,0,0,0,0,0,-2.3015,-2.3041,-2.3031,-2.3082,-2.3086,-2.3068,-2.308,-2.3062,-2.3067,-2.3069,-2.3063,-2.3069,-2.309,-2.3104,-2.3123,-2.3184,-2.3182,-2.3214,-2.3225,-2.3234,-2.3241,-2.3272,-2.3285,-2.3141,-2.314,-2.314,0,0,-2.3059,-2.3056,-2.3075,-2.3095,-2.3097,-2.3124,-2.307,-2.3101,-2.3121,-2.3073,-2.3115,-2.3111,-2.3115,-2.3168,-2.3191,-2.3168,-2.328,-2.3242,-2.3249,-2.3251,-2.3279,-2.3293,-2.3305,-2.3145,-2.3144,-2.3143,0,0,-2.3152,-2.3154,-2.3195,-2.3199,-2.3203,-2.319,-2.3201,-2.3197,-2.3193,-2.3234,-2.3199,-2.3221,-2.3259,-2.3262,-2.3269,-2.3364,-2.3335,-2.3371,-2.3428,-2.3458,-2.347,-2.348,-2.3512,-2.3524,-2.3378,-2.3378,-2.3378,0,-2.3206,-2.3245,-2.322,-2.3253,-2.3263,-2.3221,-2.3263,-2.3268,-2.3278,-2.3285,-2.3259,-2.3304,-2.3304,-2.3357,-2.338,-2.3387,-2.3397,-2.337,-2.347,-2.348,-2.3489,-2.3519,-2.3532,-2.3382,-2.3382,-2.3381,-2.3381,0,-2.331,-2.3338,-2.3372,-2.3382,-2.3396,-2.3433,-2.3413,-2.343,-2.3411,-2.3401,-2.3443,-2.3441,-2.3458,-2.347,-2.3451,-2.352,-2.3505,-2.3475,-2.3429,-2.3507,-2.3535,-2.3547,-2.3388,-2.3387,-2.3385,-2.3384,0,0,-2.3445,-2.3441,-2.3453,-2.3457,-2.3458,-2.3479,-2.3515,-2.3531,-2.3546,-2.3554,-2.3582,-2.3614,-2.3587,-2.3595,-2.3576,-2.3603,-2.3677,-2.357,-2.357,-2.3589,-2.3751,-2.3772,-2.3786,-2.3658,-2.3661,-2.3662,-2.375,0,-2.3535,-2.3595,-2.3573,-2.3634,-2.3659,-2.362,-2.365,-2.3654,-2.3646,-2.3666,-2.3657,-2.368,-2.3642,-2.3646,-2.3671,-2.3663,-2.3709,-2.3656,-2.3683,-2.3685,-2.3682,-2.3801,-2.3824,-2.3907,-2.3761,-2.3763,-2.3764,0,-2.3648,-2.366,-2.3724,-2.372,-2.373,-2.3758,-2.3771,-2.379,-2.3794,-2.3786,-2.3795,-2.377,-2.3804,-2.3758,-2.3804,-2.3769,-2.3779,-2.3776,-2.3779,-2.3779,-2.3728,-2.3804,-2.3933,-2.3945,-2.3781,-2.378,-2.3779,0,-2.3738,-2.3771,-2.3813,-2.3817,-2.3814,-2.3835,-2.3834,-2.3835,-2.3846,-2.3858,-2.3864,-2.388,-2.3888,-2.3901,-2.3881,-2.385,-2.3929,-2.3882,-2.3922,-2.3923,-2.394,-2.3939,-2.4071,-2.3949,-2.3949,-2.3948,-2.3948,0,-2.384,-2.388,-2.3853,-2.3879,-2.3922,-2.3897,-2.3941,-2.3936,-2.3937,-2.396,-2.3928,-2.3951,-2.3924,-2.3944,-2.3929,-2.3968,-2.3973,-2.3967,-2.3962,-2.3969,-2.397,-2.3974,-2.3967,-2.3952,-2.3951,-2.395,-2.395,0,-2.3947,-2.3931,-2.3974,-2.3967,-2.3966,-2.3999,-2.3993,-2.4016,-2.4006,-2.4036,-2.4042,-2.4025,-2.4047,-2.4029,-2.4051,-2.4041,-2.4092,-2.408,-2.4091,-2.4087,-2.4128,-2.4124,-2.4267,-2.4284,-2.4152,-2.4154,-2.4155,0,-2.4013,-2.4043,-2.4039,-2.4053,-2.4054,-2.4077,-2.4088,-2.4064,-2.4077,-2.4082,-2.4105,-2.4124,-2.4138,-2.4175,-2.4165,-2.4181,-2.4168,-2.4217,-2.417,-2.4176,-2.4167,-2.4165,-2.4167,-2.4226,-2.4228,-2.4229,-2.423,0,-2.4131,-2.4121,-2.4138,-2.4153,-2.4167,-2.4177,-2.4185,-2.4197,-2.4173,-2.4189,-2.4211,-2.4222,-2.4244,-2.4263,-2.4276,-2.4275,-2.4248,-2.4245,-2.4255,-2.4262,-2.4266,-2.4263,-2.4116,-2.4242,-2.424,-2.424,-2.4239,-2.4238,-2.4218,-2.4242,-2.4243,-2.4263,-2.4267,-2.4274,-2.4295,-2.4288,-2.4306,-2.4321,-2.4306,-2.4333,-2.4334,-2.4349,-2.4351,-2.4371,-2.4351,-2.4365,-2.4369,-2.4373,-2.4378,-2.4264,-2.4373,-2.4373,-2.4373,-2.4372,-2.4372,0,-2.4333,-2.4332,-2.435,-2.4362,-2.4377,-2.4352,-2.4358,-2.4373,-2.4397,-2.4401,-2.4415,-2.444,-2.4458,-2.445,-2.4466,-2.4483,-2.4471,-2.4488,-2.4486,-2.4486,-2.4396,-2.4385,-2.4497,-2.4497,-2.4497,-2.4497,-2.4497,-2.4497,-2.4395,-2.4434,-2.4424,-2.4464,-2.4462,-2.4488,-2.4494,-2.4501,-2.4504,-2.4533,-2.4548,-2.4542,-2.4541,-2.4556,-2.4572,-2.4569,-2.4575,-2.4596,-2.4589,-2.4505,-2.4492,-2.4481,-2.447,-2.4598,-2.4599,-2.4677,-2.4678,-2.4678]},{"header":{"parameterUnit":"m.s-1","parameterCategory":1,"la1":30.2991,"la2":30.254,"lo1":-89.0895,"lo2":-89.0444,"dy":0.0017,"dx":0.0017,"nx":28,"ny":28,"refTime":"2024-08-27T21:00:00:Z","depth":0,"parameterNumber":3,"parameterNumberName":"V-component_of_WINDS"},"data":[0,0,0,0,0,0,0,0,0,0,0,0,0,0,0,0,0,0,0,0,0,0,0,0,0,0,0,0,0,0,0,0,0,0,0,0,0,0,0,0,0,0,0,0,0,0,0,0,0,0,0,0,0,0,0,0,0,0,-0.4084,-0.4085,0,-0.4171,-0.4172,-0.4173,-0.4205,-0.4205,-0.4205,-0.4204,-0.4293,-0.4295,-0.4298,0,0,0,0,0,0,0,0,0,0,0,0,0,-0.3944,-0.3946,-0.4084,-0.4085,-0.4086,-0.4171,-0.4172,-0.4173,-0.4205,-0.4205,-0.4205,-0.4204,-0.4292,-0.4295,-0.4298,0,0,0,0,0,0,0,0,0,0,0,0,0,-0.4015,-0.3947,-0.4083,-0.4112,-0.4116,-0.4171,-0.4172,-0.4174,-0.4205,-0.4205,-0.4205,-0.4204,-0.4291,-0.4295,-0.4298,-0.4331,0,0,-0.431,-0.4312,0,0,0,0,0,0,0,0,-0.4011,-0.402,-0.4107,-0.411,-0.4114,-0.4177,-0.4155,-0.4226,-0.4205,-0.4171,-0.4204,-0.4204,-0.4254,-0.4261,-0.4279,-0.4335,-0.4339,-0.4311,-0.4313,-0.4315,-0.4316,0,0,0,0,0,0,0,-0.4006,-0.4016,-0.4118,-0.4108,-0.4113,-0.412,-0.413,-0.4169,-0.4214,-0.4174,-0.4177,-0.4187,-0.4256,-0.4275,-0.4281,-0.434,-0.4311,-0.4314,-0.4316,-0.4318,-0.4427,-0.4428,0,0,0,0,0,0,-0.3996,-0.4012,-0.4115,-0.4121,-0.406,-0.4123,-0.4134,-0.4157,-0.4214,-0.4222,-0.4187,-0.4188,-0.4268,-0.4276,-0.4284,-0.4326,-0.4315,-0.4318,-0.4321,-0.4427,-0.4428,-0.4428,0,0,0,0,0,0,-0.3993,-0.4005,-0.4112,-0.4067,-0.4081,-0.4126,-0.4152,-0.4159,-0.4178,-0.4223,-0.4232,-0.4197,-0.4268,-0.4279,-0.4319,-0.4329,-0.432,-0.4324,-0.4426,-0.4427,-0.4428,-0.441,0,0,0,0,0,0,-0.3989,-0.4004,-0.4017,-0.4067,-0.4084,-0.4146,-0.4152,-0.4161,-0.4184,-0.4186,-0.4235,-0.4243,-0.4269,-0.4313,-0.4323,-0.4335,-0.4327,-0.4425,-0.4427,-0.4428,-0.4409,-0.441,-0.441,0,0,0,0,0,-0.3984,-0.4008,-0.4018,-0.403,-0.4101,-0.4146,-0.4156,-0.4185,-0.4185,-0.4198,-0.4228,-0.4242,-0.4326,-0.4317,-0.4328,-0.4341,-0.4425,-0.4426,-0.4427,-0.4409,-0.441,-0.441,0,0,0,0,0,0,-0.3958,-0.4015,-0.4026,-0.4068,-0.4102,-0.4152,-0.417,-0.4184,-0.4219,-0.4219,-0.4254,-0.4264,-0.4302,-0.4326,-0.4314,-0.4375,-0.4377,-0.438,-0.4359,-0.436,-0.436,-0.4353,-0.433,0,0,0,0,0,-0.3957,-0.3989,-0.4038,-0.4069,-0.4086,-0.4125,-0.4146,-0.4165,-0.4202,-0.4216,-0.4249,-0.4283,-0.4318,-0.434,-0.4374,-0.4413,-0.4424,-0.4427,-0.4427,-0.4427,-0.443,-0.4452,-0.4454,-0.4432,-0.4432,-0.4432,0,0,-0.3955,-0.3991,-0.4009,-0.4065,-0.4094,-0.4126,-0.4137,-0.4171,-0.4195,-0.4221,-0.4262,-0.4287,-0.4328,-0.4367,-0.4386,-0.4388,-0.4438,-0.4429,-0.4429,-0.4432,-0.4453,-0.4456,-0.4457,-0.4433,-0.4433,-0.4433,0,0,-0.3969,-0.3999,-0.4029,-0.4058,-0.4101,-0.4127,-0.4134,-0.4181,-0.4199,-0.424,-0.4261,-0.429,-0.4348,-0.4377,-0.4399,-0.4423,-0.4436,-0.4433,-0.4434,-0.4455,-0.4456,-0.4458,-0.4467,-0.4469,-0.4435,-0.4435,-0.4435,0,-0.3962,-0.4012,-0.4042,-0.4075,-0.4099,-0.4125,-0.4155,-0.4181,-0.4233,-0.4249,-0.425,-0.4324,-0.4354,-0.44,-0.4406,-0.4423,-0.4432,-0.4427,-0.4454,-0.4456,-0.4458,-0.4466,-0.4469,-0.4434,-0.4434,-0.4435,-0.4435,0,-0.4,-0.4034,-0.4053,-0.4103,-0.4129,-0.4161,-0.4196,-0.4218,-0.4235,-0.426,-0.4301,-0.4338,-0.4379,-0.4392,-0.4409,-0.4441,-0.444,-0.4447,-0.4449,-0.4459,-0.4467,-0.4471,-0.4433,-0.4434,-0.4434,-0.4434,0,0,-0.4,-0.4067,-0.4073,-0.4096,-0.4146,-0.4173,-0.4205,-0.4247,-0.4265,-0.43,-0.4328,-0.4377,-0.4383,-0.4408,-0.4428,-0.4446,-0.4463,-0.4451,-0.4453,-0.4452,-0.45,-0.4495,-0.4498,-0.4472,-0.4473,-0.4474,-0.4497,0,-0.4021,-0.408,-0.4108,-0.4155,-0.4187,-0.4211,-0.4239,-0.4273,-0.4297,-0.4327,-0.4353,-0.4388,-0.4394,-0.4409,-0.4428,-0.4457,-0.4473,-0.4455,-0.4498,-0.4499,-0.4487,-0.4503,-0.4497,-0.4518,-0.45,-0.4501,-0.4501,0,-0.4053,-0.4088,-0.4138,-0.4184,-0.4198,-0.4223,-0.4263,-0.4291,-0.4329,-0.4346,-0.4373,-0.4393,-0.4427,-0.4426,-0.4473,-0.446,-0.4479,-0.4496,-0.4497,-0.4503,-0.4501,-0.4509,-0.4525,-0.4528,-0.4507,-0.4506,-0.4506,0,-0.4048,-0.4108,-0.4145,-0.4164,-0.4219,-0.4235,-0.4259,-0.4296,-0.4319,-0.4354,-0.4369,-0.4407,-0.4428,-0.4456,-0.4485,-0.4482,-0.453,-0.4531,-0.4544,-0.4543,-0.4553,-0.4552,-0.4573,-0.4565,-0.4565,-0.4565,-0.4565,0,-0.4068,-0.4098,-0.4144,-0.4167,-0.4201,-0.4233,-0.4265,-0.429,-0.4323,-0.4351,-0.4374,-0.44,-0.4436,-0.4467,-0.4489,-0.4525,-0.4534,-0.4548,-0.4554,-0.4546,-0.4544,-0.4559,-0.4559,-0.4566,-0.4565,-0.4565,-0.4565,0,-0.4069,-0.4101,-0.4144,-0.4191,-0.4204,-0.4227,-0.4267,-0.4291,-0.4316,-0.4351,-0.4361,-0.44,-0.4437,-0.4468,-0.4516,-0.4532,-0.4568,-0.4575,-0.4556,-0.4559,-0.457,-0.4569,-0.4601,-0.4607,-0.4595,-0.4595,-0.4595,0,-0.4079,-0.4103,-0.4153,-0.4174,-0.4197,-0.423,-0.4253,-0.4285,-0.4309,-0.4354,-0.4371,-0.4409,-0.4442,-0.4499,-0.4532,-0.4568,-0.4576,-0.4585,-0.4582,-0.4574,-0.4577,-0.4575,-0.4578,-0.4585,-0.4585,-0.4585,-0.4585,0,-0.4095,-0.411,-0.4143,-0.4182,-0.421,-0.4242,-0.4275,-0.429,-0.4328,-0.4353,-0.4391,-0.4416,-0.4465,-0.4503,-0.4543,-0.4567,-0.4582,-0.4586,-0.4591,-0.4584,-0.4572,-0.4578,-0.4556,-0.4585,-0.4585,-0.4585,-0.4585,-0.4585,-0.4101,-0.4123,-0.4162,-0.4198,-0.4226,-0.4256,-0.428,-0.4309,-0.4341,-0.4384,-0.4401,-0.4439,-0.4476,-0.4532,-0.4555,-0.4585,-0.4588,-0.4595,-0.4597,-0.4598,-0.4597,-0.4566,-0.4593,-0.4593,-0.4593,-0.4593,-0.4593,0,-0.4119,-0.4145,-0.4178,-0.4223,-0.4251,-0.4264,-0.43,-0.4323,-0.4357,-0.439,-0.4422,-0.4465,-0.4502,-0.4537,-0.4575,-0.4592,-0.46,-0.4601,-0.4601,-0.4606,-0.4593,-0.4585,-0.4594,-0.4594,-0.4594,-0.4594,-0.4594,-0.4594,-0.4131,-0.4168,-0.4188,-0.4239,-0.4265,-0.4304,-0.4323,-0.4351,-0.4378,-0.4425,-0.4456,-0.4479,-0.4513,-0.4553,-0.4587,-0.4597,-0.461,-0.4609,-0.462,-0.4607,-0.4607,-0.4606,-0.4599,-0.4611,-0.4611,-0.4631,-0.4631,-0.4631]}]]